Time,TemperatureF,DewpointF,PressureIn,WindDirection,WindDirectionDegrees,WindSpeedMPH,WindSpeedGustMPH,Humidity,HourlyPrecipIn,Conditions,Clouds,dailyrainin,SolarRadiationWatts/m^2,SoftwareType,DateUTC
2015-01-30 04:43:00,42.0,32.0,30.15,NE,38,2.0,3.0,66,-99.99,,,-99.99,0.000000,,2015-01-30 12:43:00,
2015-01-30 04:52:00,42.0,32.0,30.15,NE,38,2.0,3.0,66,-99.99,,,-99.99,0.000000,,2015-01-30 12:52:00,
2015-01-30 06:40:00,40.0,32.0,30.13,North,8,4.0,6.0,74,-99.99,,,-99.99,0.000000,,2015-01-30 14:40:00,
2015-01-30 07:22:00,40.0,32.0,30.13,North,8,4.0,6.0,74,-99.99,,,-99.99,0.000000,,2015-01-30 15:22:00,
2015-01-30 07:30:00,39.0,32.0,30.13,NNW,338,4.0,9.0,77,-99.99,,,-99.99,10.000000,,2015-01-30 15:30:00,
2015-01-30 07:34:00,40.0,32.0,30.13,North,8,4.0,6.0,74,-99.99,,,-99.99,0.000000,,2015-01-30 15:34:00,
2015-01-30 08:10:00,38.0,32.0,30.13,NNW,342,6.0,8.0,77,-99.99,,,-99.99,30.000000,,2015-01-30 16:10:00,
2015-01-30 08:13:00,39.0,32.0,30.13,NNW,338,4.0,9.0,77,-99.99,,,-99.99,10.000000,,2015-01-30 16:13:00,
2015-01-30 08:24:00,39.0,32.0,30.13,NNW,338,4.0,9.0,77,-99.99,,,-99.99,10.000000,,2015-01-30 16:24:00,
2015-01-30 08:50:00,42.0,33.0,30.14,North,10,6.0,10.0,69,-99.99,,,-99.99,280.000000,,2015-01-30 16:50:00,
2015-01-30 08:54:00,38.0,32.0,30.13,NNW,342,6.0,8.0,77,-99.99,,,-99.99,30.000000,,2015-01-30 16:54:00,
2015-01-30 09:04:00,38.0,32.0,30.13,NNW,342,6.0,8.0,77,-99.99,,,-99.99,30.000000,,2015-01-30 17:04:00,
2015-01-30 09:30:00,43.0,32.0,30.14,North,350,9.0,14.0,65,-99.99,,,-99.99,380.000000,,2015-01-30 17:30:00,
2015-01-30 09:43:00,42.0,33.0,30.14,North,10,6.0,10.0,69,-99.99,,,-99.99,280.000000,,2015-01-30 17:43:00,
2015-01-30 10:10:00,43.0,33.0,30.14,NE,42,6.0,10.0,66,-99.99,,,-99.99,160.000000,,2015-01-30 18:10:00,
2015-01-30 10:13:00,43.0,32.0,30.14,North,350,9.0,14.0,65,-99.99,,,-99.99,380.000000,,2015-01-30 18:13:00,
2015-01-30 10:22:00,43.0,32.0,30.14,North,350,9.0,14.0,65,-99.99,,,-99.99,380.000000,,2015-01-30 18:22:00,
2015-01-30 10:50:00,45.0,32.0,30.14,NE,44,7.0,13.0,59,-99.99,,,-99.99,460.000000,,2015-01-30 18:50:00,
2015-01-30 10:53:00,43.0,33.0,30.14,NE,42,6.0,10.0,66,-99.99,,,-99.99,160.000000,,2015-01-30 18:53:00,
2015-01-30 11:03:00,43.0,33.0,30.14,NE,42,6.0,10.0,66,-99.99,,,-99.99,160.000000,,2015-01-30 19:03:00,
2015-01-30 11:30:00,47.0,32.0,-100.00,ENE,60,6.0,10.0,56,-99.99,,,-99.99,530.000000,,2015-01-30 19:30:00,
2015-01-30 11:42:00,45.0,32.0,30.14,NE,44,7.0,13.0,59,-99.99,,,-99.99,460.000000,,2015-01-30 19:42:00,
2015-01-30 12:12:00,47.0,32.0,30.13,ENE,60,6.0,10.0,56,-99.99,,,-99.99,530.000000,,2015-01-30 20:12:00,
2015-01-30 12:22:00,47.0,32.0,-100.00,ENE,60,6.0,10.0,56,-99.99,,,-99.99,530.000000,,2015-01-30 20:22:00,
2015-01-30 13:12:00,49.0,31.0,30.09,East,98,6.0,11.0,50,-99.99,,,-99.99,610.000000,,2015-01-30 21:12:00,
2015-01-30 13:50:00,50.0,29.0,30.06,East,80,5.0,11.0,44,-99.99,,,-99.99,490.000000,,2015-01-30 21:50:00,
2015-01-30 14:13:00,51.0,29.0,30.07,NE,48,4.0,11.0,44,-99.99,,,-99.99,520.000000,,2015-01-30 22:13:00,
2015-01-30 14:44:00,50.0,29.0,30.06,East,80,5.0,11.0,44,-99.99,,,-99.99,490.000000,,2015-01-30 22:44:00,